| time (UTC) | temp C | wind direction | speed KPH | gust KPH | rain 1hr cm | rain 24hr cm | rain mn cm | humidity % | barometer mb |
| 20260503214458 | 12 | 57 | 6.4 | 9.7 | 0.00 | 0.00 | 0.00 | 28 | 1008.2 |
| 20260503213955 | 12 | 246 | 0.0 | 3.2 | 0.00 | 0.00 | 0.00 | 31 | 1008.2 |
| 20260503213453 | 12 | 237 | 1.6 | 4.8 | 0.00 | 0.00 | 0.00 | 29 | 1008.4 |
| 20260503212948 | 12 | 287 | 3.2 | 4.8 | 0.00 | 0.00 | 0.00 | 29 | 1008.5 |
| 20260503212446 | 12 | 330 | 1.6 | 3.2 | 0.00 | 0.00 | 0.00 | 29 | 1008.5 |
| 20260503211943 | 12 | 294 | 4.8 | 12.9 | 0.00 | 0.00 | 0.00 | 29 | 1008.5 |
| 20260503211441 | 12 | 280 | 3.2 | 14.5 | 0.00 | 0.00 | 0.00 | 28 | 1008.5 |
| 20260503210936 | 12 | 252 | 6.4 | 9.7 | 0.00 | 0.00 | 0.00 | 28 | 1008.6 |
| 20260503210433 | 12 | 284 | 6.4 | 11.3 | 0.00 | 0.00 | 0.00 | 28 | 1008.4 |
| 20260503205928 | 12 | 207 | 4.8 | 17.7 | 0.00 | 0.00 | 0.00 | 29 | 1008.5 |
| 20260503205425 | 12 | 234 | 3.2 | 4.8 | 0.00 | 0.00 | 0.00 | 29 | 1008.3 |
| 20260503204921 | 13 | 315 | 8.0 | 9.7 | 0.00 | 0.00 | 0.00 | 27 | 1008.5 |
| 20260503204419 | 12 | 243 | 1.6 | 11.3 | 0.00 | 0.00 | 0.00 | 31 | 1008.6 |
| 20260503203916 | 13 | 280 | 3.2 | 6.4 | 0.00 | 0.00 | 0.00 | 29 | 1008.6 |
| 20260503203413 | 13 | 267 | 4.8 | 11.3 | 0.00 | 0.00 | 0.00 | 27 | 1008.5 |
| 20260503202910 | 13 | 258 | 3.2 | 6.4 | 0.00 | 0.00 | 0.00 | 26 | 1008.6 |
| 20260503202408 | 12 | 247 | 1.6 | 4.8 | 0.00 | 0.00 | 0.00 | 29 | 1008.7 |
| 20260503201906 | 12 | 253 | 1.6 | 12.9 | 0.00 | 0.00 | 0.00 | 28 | 1008.8 |
| 20260503201403 | 12 | 25 | 1.6 | 4.8 | 0.00 | 0.00 | 0.00 | 28 | 1008.6 |
| 20260503200900 | 12 | 187 | 4.8 | 11.3 | 0.00 | 0.00 | 0.00 | 29 | 1008.4 |
| 20260503200356 | 12 | 291 | 4.8 | 9.7 | 0.00 | 0.00 | 0.00 | 29 | 1008.6 |
| 20260503195853 | 13 | 308 | 6.4 | 9.7 | 0.00 | 0.00 | 0.00 | 29 | 1008.7 |
| 20260503195349 | 12 | 292 | 4.8 | 11.3 | 0.00 | 0.00 | 0.00 | 29 | 1008.7 |
| 20260503194847 | 13 | 255 | 3.2 | 6.4 | 0.00 | 0.00 | 0.00 | 32 | 1008.9 |
| 20260503194343 | 12 | 289 | 1.6 | 1.6 | 0.00 | 0.00 | 0.00 | 38 | 1008.9 |
| 20260503193839 | 12 | 293 | 1.6 | 6.4 | 0.00 | 0.00 | 0.00 | 31 | 1008.8 |
| 20260503193335 | 13 | 209 | 6.4 | 17.7 | 0.00 | 0.00 | 0.00 | 31 | 1008.8 |
| 20260503192831 | 12 | 252 | 1.6 | 4.8 | 0.00 | 0.00 | 0.00 | 32 | 1009.1 |
| 20260503192327 | 13 | 302 | 4.8 | 9.7 | 0.00 | 0.00 | 0.00 | 31 | 1009.3 |
| 20260503191823 | 12 | 352 | 3.2 | 11.3 | 0.00 | 0.00 | 0.00 | 32 | 1009.3 |
| 20260503191321 | 12 | 256 | 6.4 | 11.3 | 0.00 | 0.00 | 0.00 | 30 | 1009.3 |
| 20260503190817 | 13 | 272 | 1.6 | 4.8 | 0.00 | 0.00 | 0.00 | 31 | 1009.5 |
| 20260503190314 | 12 | 256 | 1.6 | 4.8 | 0.00 | 0.00 | 0.00 | 43 | 1009.4 |
| 20260503185811 | 12 | 51 | 6.4 | 9.7 | 0.00 | 0.00 | 0.00 | 32 | 1009.5 |
| 20260503185308 | 11 | 300 | 4.8 | 11.3 | 0.00 | 0.00 | 0.00 | 33 | 1009.6 |
| 20260503184807 | 11 | 165 | 8.0 | 11.3 | 0.00 | 0.00 | 0.00 | 33 | 1009.5 |
| 20260503184304 | 11 | 285 | 1.6 | 6.4 | 0.00 | 0.00 | 0.00 | 35 | 1009.8 |
| 20260503183759 | 11 | 272 | 1.6 | 4.8 | 0.00 | 0.00 | 0.00 | 35 | 1009.9 |
| 20260503183257 | 11 | 267 | 1.6 | 9.7 | 0.00 | 0.00 | 0.00 | 38 | 1010.1 |
| 20260503182754 | 11 | 9 | 6.4 | 9.7 | 0.00 | 0.00 | 0.00 | 34 | 1009.9 |
| 20260503182253 | 10 | 163 | 3.2 | 4.8 | 0.00 | 0.00 | 0.00 | 39 | 1009.8 |
| 20260503181750 | 11 | 288 | 0.0 | 1.6 | 0.00 | 0.00 | 0.00 | 37 | 1009.8 |
| 20260503181247 | 10 | 301 | 4.8 | 9.7 | 0.00 | 0.00 | 0.00 | 35 | 1010.0 |
| 20260503180743 | 10 | 351 | 3.2 | 9.7 | 0.00 | 0.00 | 0.00 | 38 | 1009.9 |
| 20260503180242 | 10 | 173 | 1.6 | 9.7 | 0.00 | 0.00 | 0.00 | 38 | 1009.8 |
| 20260503175738 | 9 | 332 | 1.6 | 4.8 | 0.00 | 0.00 | 0.00 | 43 | 1010.1 |
| 20260503175236 | 9 | 345 | 1.6 | 11.3 | 0.00 | 0.00 | 0.00 | 41 | 1010.1 |
| 20260503174732 | 10 | 284 | 8.0 | 12.9 | 0.00 | 0.00 | 0.00 | 36 | 1010.0 |
| 20260503174230 | 9 | 20 | 3.2 | 3.2 | 0.00 | 0.00 | 0.00 | 39 | 1010.1 |
| 20260503173730 | 8 | 264 | 3.2 | 4.8 | 0.00 | 0.00 | 0.00 | 38 | 1010.2 |
| 20260503173226 | 8 | 292 | 1.6 | 3.2 | 0.00 | 0.00 | 0.00 | 40 | 1010.3 |
| 20260503172723 | 8 | 253 | 0.0 | 11.3 | 0.00 | 0.00 | 0.00 | 41 | 1010.3 |
| 20260503172220 | 8 | 143 | 8.0 | 11.3 | 0.00 | 0.00 | 0.00 | 40 | 1010.3 |
| 20260503171717 | 8 | 266 | 1.6 | 6.4 | 0.00 | 0.00 | 0.00 | 42 | 1010.5 |
| 20260503171214 | 9 | 269 | 4.8 | 6.4 | 0.00 | 0.00 | 0.00 | 39 | 1010.4 |
| 20260503170711 | 8 | 230 | 1.6 | 4.8 | 0.00 | 0.00 | 0.00 | 43 | 1010.4 |
| 20260503170208 | 8 | 302 | 3.2 | 6.4 | 0.00 | 0.00 | 0.00 | 40 | 1010.5 |
| 20260503160130 | 8 | 270 | 1.6 | 6.4 | 0.00 | 0.00 | 0.00 | 40 | 1010.6 |
| 20260503150559 | 7 | 333 | 3.2 | 4.8 | 0.00 | 0.00 | 0.00 | 38 | 1010.8 |
| 20260503130949 | 7 | 225 | 3.2 | 6.4 | 0.00 | 0.00 | 0.00 | 52 | 1011.2 |
| 20260503130447 | 7 | 232 | 3.2 | 4.8 | 0.00 | 0.00 | 0.00 | 57 | 1011.4 |
| 20260503110343 | 2 | 226 | 0.0 | 0.0 | 0.00 | 0.00 | 0.00 | 84 | 1011.1 |
| 20260503090235 | 1 | 226 | 0.0 | 0.0 | 0.00 | 0.00 | 0.00 | 83 | 1010.9 |
| 20260503081202 | 1 | 226 | 0.0 | 0.0 | 0.00 | 0.00 | 0.00 | 81 | 1011.0 |
| 20260503080657 | 1 | 226 | 0.0 | 0.0 | 0.00 | 0.00 | 0.00 | 81 | 1010.9 |
| 20260503080155 | 1 | 226 | 0.0 | 0.0 | 0.00 | 0.00 | 0.00 | 81 | 1011.0 |
| 20260503072631 | 1 | 226 | 0.0 | 0.0 | 0.00 | 0.00 | 0.00 | 79 | 1011.1 |
| 20260503072128 | 1 | 226 | 0.0 | 0.0 | 0.00 | 0.00 | 0.00 | 78 | 1011.1 |
| 20260503071625 | 1 | 226 | 0.0 | 0.0 | 0.00 | 0.00 | 0.00 | 79 | 1011.0 |
| 20260503071122 | 1 | 226 | 0.0 | 0.0 | 0.00 | 0.00 | 0.00 | 81 | 1011.0 |
| 20260503070619 | 1 | 226 | 0.0 | 0.0 | 0.00 | 0.00 | 0.00 | 80 | 1011.2 |
| 20260503070117 | 1 | 226 | 0.0 | 0.0 | 0.00 | 0.00 | 0.00 | 80 | 1011.1 |
| 20260503055037 | 1 | 226 | 0.0 | 0.0 | 0.00 | 0.00 | 0.00 | 79 | 1011.7 |
| 20260503054533 | 1 | 226 | 0.0 | 0.0 | 0.00 | 0.00 | 0.00 | 79 | 1011.9 |
| 20260503054031 | 1 | 226 | 0.0 | 0.0 | 0.00 | 0.00 | 0.00 | 77 | 1011.9 |
| 20260503053529 | 1 | 226 | 0.0 | 0.0 | 0.00 | 0.00 | 0.00 | 76 | 1012.0 |
| 20260503053026 | 1 | 226 | 0.0 | 0.0 | 0.00 | 0.00 | 0.00 | 75 | 1012.0 |
| 20260503052523 | 2 | 226 | 0.0 | 0.0 | 0.00 | 0.00 | 0.00 | 74 | 1011.9 |
| 20260503052019 | 2 | 226 | 0.0 | 0.0 | 0.00 | 0.00 | 0.00 | 73 | 1012.0 |
| 20260503051515 | 2 | 226 | 0.0 | 0.0 | 0.00 | 0.00 | 0.00 | 72 | 1012.0 |
| 20260503051013 | 2 | 226 | 0.0 | 0.0 | 0.00 | 0.00 | 0.00 | 71 | 1012.2 |
| 20260503050508 | 2 | 226 | 0.0 | 0.0 | 0.00 | 0.00 | 0.00 | 71 | 1012.0 |
| 20260503050006 | 2 | 226 | 1.6 | 1.6 | 0.00 | 0.00 | 0.00 | 71 | 1012.3 |
| 20260503045503 | 2 | 226 | 0.0 | 1.6 | 0.00 | 0.00 | 0.00 | 72 | 1012.1 |
| 20260503045000 | 2 | 226 | 0.0 | 0.0 | 0.00 | 0.00 | 0.00 | 72 | 1012.2 |
| 20260503044456 | 2 | 225 | 1.6 | 1.6 | 0.00 | 0.00 | 0.00 | 72 | 1012.2 |
| 20260503043954 | 2 | 228 | 0.0 | 0.0 | 0.00 | 0.00 | 0.00 | 72 | 1012.2 |
| 20260503043450 | 2 | 228 | 0.0 | 0.0 | 0.00 | 0.00 | 0.00 | 72 | 1012.2 |
| 20260503042947 | 2 | 228 | 0.0 | 1.6 | 0.00 | 0.00 | 0.00 | 71 | 1012.3 |
| 20260503042443 | 2 | 228 | 0.0 | 0.0 | 0.00 | 0.00 | 0.00 | 72 | 1012.2 |
| 20260503041940 | 2 | 220 | 3.2 | 3.2 | 0.00 | 0.00 | 0.00 | 71 | 1012.6 |
| 20260503041437 | 2 | 231 | 0.0 | 0.0 | 0.00 | 0.00 | 0.00 | 70 | 1012.3 |
| 20260503040934 | 2 | 230 | 0.0 | 1.6 | 0.00 | 0.00 | 0.00 | 70 | 1012.4 |
| 20260503040431 | 2 | 232 | 0.0 | 1.6 | 0.00 | 0.00 | 0.00 | 69 | 1012.4 |
| 20260503035929 | 2 | 232 | 1.6 | 1.6 | 0.00 | 0.00 | 0.00 | 69 | 1012.4 |
| 20260503035425 | 2 | 232 | 0.0 | 0.0 | 0.00 | 0.00 | 0.00 | 68 | 1012.5 |
| 20260503034923 | 2 | 231 | 1.6 | 1.6 | 0.00 | 0.00 | 0.00 | 67 | 1012.5 |
| 20260503034421 | 3 | 241 | 0.0 | 0.0 | 0.00 | 0.00 | 0.00 | 67 | 1012.5 |
| 20260503033917 | 3 | 232 | 1.6 | 1.6 | 0.00 | 0.00 | 0.00 | 65 | 1012.6 |
| 20260503033415 | 3 | 233 | 0.0 | 0.0 | 0.00 | 0.00 | 0.00 | 65 | 1012.7 |
| 20260503032913 | 3 | 233 | 0.0 | 1.6 | 0.00 | 0.00 | 0.00 | 65 | 1012.5 |
| 20260503032411 | 3 | 233 | 0.0 | 1.6 | 0.00 | 0.00 | 0.00 | 64 | 1012.5 |
| 20260503031908 | 3 | 233 | 1.6 | 1.6 | 0.00 | 0.00 | 0.00 | 64 | 1012.6 |
| 20260503031406 | 3 | 233 | 0.0 | 1.6 | 0.00 | 0.00 | 0.00 | 64 | 1012.4 |
| 20260503030902 | 3 | 234 | 0.0 | 0.0 | 0.00 | 0.00 | 0.00 | 65 | 1012.6 |
| 20260503030359 | 3 | 233 | 1.6 | 1.6 | 0.00 | 0.00 | 0.00 | 65 | 1012.6 |
| 20260503025855 | 3 | 235 | 0.0 | 0.0 | 0.00 | 0.00 | 0.00 | 66 | 1012.4 |
| 20260503025353 | 3 | 235 | 1.6 | 1.6 | 0.00 | 0.00 | 0.00 | 68 | 1012.4 |
| 20260503024850 | 3 | 235 | 0.0 | 0.0 | 0.00 | 0.00 | 0.00 | 71 | 1012.7 |
| 20260503024346 | 3 | 235 | 0.0 | 0.0 | 0.00 | 0.00 | 0.00 | 70 | 1012.7 |
| 20260503023843 | 3 | 235 | 1.6 | 1.6 | 0.00 | 0.00 | 0.00 | 70 | 1012.5 |
| 20260503023341 | 2 | 235 | 0.0 | 0.0 | 0.00 | 0.00 | 0.00 | 70 | 1012.7 |
| 20260503022838 | 2 | 234 | 0.0 | 0.0 | 0.00 | 0.00 | 0.00 | 70 | 1012.8 |
| 20260503022337 | 2 | 235 | 0.0 | 0.0 | 0.00 | 0.00 | 0.00 | 70 | 1012.8 |
| 20260503021834 | 2 | 234 | 0.0 | 0.0 | 0.00 | 0.00 | 0.00 | 78 | 1012.7 |
| 20260503021330 | 2 | 234 | 0.0 | 0.0 | 0.00 | 0.00 | 0.00 | 77 | 1012.6 |
| 20260503020828 | 2 | 234 | 0.0 | 0.0 | 0.00 | 0.00 | 0.00 | 75 | 1012.8 |
| 20260503020326 | 1 | 234 | 0.0 | 0.0 | 0.00 | 0.00 | 0.00 | 75 | 1012.9 |
| 20260503015822 | 1 | 234 | 0.0 | 0.0 | 0.00 | 0.00 | 0.00 | 72 | 1012.9 |
| 20260503015319 | 2 | 234 | 0.0 | 0.0 | 0.00 | 0.00 | 0.00 | 73 | 1012.9 |
| 20260503014815 | 2 | 234 | 0.0 | 0.0 | 0.00 | 0.00 | 0.00 | 74 | 1012.9 |
| 20260503014313 | 2 | 234 | 0.0 | 0.0 | 0.00 | 0.00 | 0.00 | 71 | 1012.7 |
| 20260503013810 | 2 | 234 | 0.0 | 0.0 | 0.00 | 0.00 | 0.00 | 69 | 1012.6 |
| 20260503013307 | 2 | 234 | 0.0 | 0.0 | 0.00 | 0.00 | 0.00 | 70 | 1012.8 |
| 20260503012804 | 2 | 234 | 0.0 | 0.0 | 0.00 | 0.00 | 0.00 | 69 | 1012.8 |
| 20260503012301 | 2 | 234 | 0.0 | 0.0 | 0.00 | 0.00 | 0.00 | 67 | 1012.7 |
| 20260503011758 | 2 | 234 | 0.0 | 0.0 | 0.00 | 0.00 | 0.00 | 66 | 1012.9 |
| 20260503011255 | 3 | 234 | 0.0 | 0.0 | 0.00 | 0.00 | 0.00 | 65 | 1012.8 |
| 20260503010751 | 3 | 234 | 0.0 | 0.0 | 0.00 | 0.00 | 0.00 | 64 | 1012.6 |
| 20260503010249 | 3 | 234 | 0.0 | 0.0 | 0.00 | 0.00 | 0.00 | 63 | 1012.8 |
| 20260503005746 | 3 | 234 | 0.0 | 0.0 | 0.00 | 0.00 | 0.00 | 63 | 1012.6 |
| 20260503005243 | 4 | 234 | 0.0 | 0.0 | 0.00 | 0.00 | 0.00 | 60 | 1012.6 |
| 20260503004739 | 4 | 234 | 0.0 | 0.0 | 0.00 | 0.00 | 0.00 | 60 | 1012.5 |
| 20260503004237 | 4 | 235 | 0.0 | 0.0 | 0.00 | 0.00 | 0.00 | 59 | 1012.6 |
| 20260503003734 | 5 | 235 | 0.0 | 0.0 | 0.00 | 0.00 | 0.00 | 59 | 1012.5 |
| 20260503003231 | 5 | 234 | 0.0 | 3.2 | 0.00 | 0.00 | 0.00 | 59 | 1012.5 |
| 20260503002728 | 5 | 269 | 0.0 | 1.6 | 0.00 | 0.00 | 0.00 | 58 | 1012.5 |
| 20260503002225 | 5 | 269 | 0.0 | 0.0 | 0.00 | 0.00 | 0.00 | 57 | 1012.3 |
| 20260503001720 | 5 | 269 | 1.6 | 1.6 | 0.00 | 0.00 | 0.00 | 56 | 1012.3 |
| 20260503001217 | 5 | 269 | 3.2 | 1.6 | 0.00 | 0.00 | 0.00 | 55 | 1012.3 |
| 20260503000715 | 5 | 265 | 0.0 | 3.2 | 0.00 | 0.00 | 0.00 | 55 | 1012.2 |
| 20260503000212 | 6 | 327 | 0.0 | 1.6 | 0.00 | 0.00 | 0.00 | 55 | 1012.4 |
| 20260502235709 | 6 | 329 | 0.0 | 0.0 | 0.00 | 0.00 | 0.00 | 55 | 1012.3 |
| 20260502235207 | 6 | 259 | 1.6 | 1.6 | 0.00 | 0.00 | 0.00 | 54 | 1012.6 |
| 20260502234703 | 6 | 325 | 3.2 | 4.8 | 0.00 | 0.00 | 0.00 | 53 | 1012.2 |
| 20260502234200 | 6 | 295 | 0.0 | 3.2 | 0.00 | 0.00 | 0.00 | 52 | 1012.3 |
| 20260502233656 | 6 | 291 | 3.2 | 4.8 | 0.00 | 0.00 | 0.00 | 51 | 1012.4 |
| 20260502233153 | 6 | 228 | 0.0 | 3.2 | 0.00 | 0.00 | 0.00 | 50 | 1012.0 |
| 20260502232649 | 6 | 225 | 1.6 | 4.8 | 0.00 | 0.00 | 0.00 | 49 | 1012.2 |
| 20260502232147 | 7 | 257 | 4.8 | 4.8 | 0.00 | 0.00 | 0.00 | 49 | 1012.0 |
| 20260502231643 | 7 | 247 | 0.0 | 3.2 | 0.00 | 0.00 | 0.00 | 50 | 1011.9 |
| 20260502231141 | 7 | 10 | 1.6 | 3.2 | 0.00 | 0.00 | 0.00 | 48 | 1011.9 |
| 20260502230639 | 7 | 289 | 1.6 | 3.2 | 0.00 | 0.00 | 0.00 | 48 | 1012.2 |
| 20260502230137 | 7 | 249 | 3.2 | 4.8 | 0.00 | 0.00 | 0.00 | 47 | 1012.1 |
| 20260502225632 | 7 | 284 | 1.6 | 1.6 | 0.00 | 0.00 | 0.00 | 49 | 1012.1 |
| 20260502225130 | 7 | 239 | 0.0 | 4.8 | 0.00 | 0.00 | 0.00 | 47 | 1012.1 |
| 20260502224626 | 7 | 289 | 1.6 | 4.8 | 0.00 | 0.00 | 0.00 | 46 | 1011.7 |
| 20260502224123 | 7 | 250 | 8.0 | 12.9 | 0.00 | 0.00 | 0.00 | 45 | 1012.1 |
| 20260502223621 | 7 | 276 | 4.8 | 4.8 | 0.00 | 0.00 | 0.00 | 46 | 1011.7 |
| 20260502223119 | 8 | 286 | 1.6 | 4.8 | 0.00 | 0.00 | 0.00 | 46 | 1012.1 |
| 20260502222616 | 8 | 235 | 1.6 | 3.2 | 0.00 | 0.00 | 0.00 | 46 | 1012.0 |
| 20260502222112 | 8 | 294 | 0.0 | 1.6 | 0.00 | 0.00 | 0.00 | 48 | 1011.7 |
| 20260502221608 | 8 | 334 | 1.6 | 11.3 | 0.00 | 0.00 | 0.00 | 44 | 1011.6 |
| 20260502221106 | 8 | 281 | 4.8 | 9.7 | 0.00 | 0.00 | 0.00 | 44 | 1011.7 |
| 20260502220601 | 8 | 43 | 3.2 | 3.2 | 0.00 | 0.00 | 0.00 | 45 | 1012.0 |
| 20260502220058 | 8 | 286 | 3.2 | 4.8 | 0.00 | 0.00 | 0.00 | 45 | 1012.0 |
| 20260502215555 | 8 | 273 | 1.6 | 3.2 | 0.00 | 0.00 | 0.00 | 45 | 1011.9 |
| 20260502215052 | 8 | 297 | 1.6 | 3.2 | 0.00 | 0.00 | 0.00 | 44 | 1011.7 |